Jerez de la Frontera, Spain

6:12 AM CEST on July 21, 2017 (GMT +0200)
Jerez

Weather History for LEJR - June, 2013

Change the Weather History Date:

Saturday, June 22, 2013

  Actual Average Record
Temperature  
Mean Temperature 76 °F -  
Max Temperature 94 °F 87 °F 98 °F (1998)
Min Temperature 58 °F 61 °F 57 °F (2004)
Cooling Degree Days 11    
Growing Degree Days 26 (Base 50)    
Moisture  
Dew Point 52 °F    
Average Humidity 44    
Maximum Humidity 94    
Minimum Humidity 16    
Precipitation  
Precipitation 0.00 in 0.01 in - ()
Sea Level Pressure  
Sea Level Pressure 30.07 in    
Wind  
Wind Speed 3 mph ()    
Max Wind Speed 12 mph    
Max Gust Speed -    
Visibility 18.0 miles    
Events      
Averages and records for this station are not official NWS values.
T = Trace of Precipitation, MM = Missing Value Source: Averaged Metar Reports

Daily Weather History Graph

Daily Weather History Graph

Search for Another Location

Airport or City:

Trip Planner

Search our weather history database for the weather conditions in past years. The results will help you decide how hot, cold, wet, or windy it might be!

Date:

Astronomy

Jun. 22, 2013 Rise Set
Actual Time 7:05 AM CEST 9:46 PM CEST
Civil Twilight 6:35 AM CEST 10:17 PM CEST
Nautical Twilight 5:56 AM CEST 10:55 PM CEST
Astronomical Twilight 5:13 AM CEST 11:38 PM CEST
Moon 8:48 PM CEST (6/22) 6:02 AM CEST (6/22)
Length of Visible Light 15h 42m
Length of Day
14h 40m
Waxing Gibbous, 98% of the Moon is Illuminated
Jun 22
Waxing Gibbous
Jun 23
Full
Jun 30
Last Quarter
Jul 8
New
Jul 16
First Quarter

Hourly Weather History & Observations

Time (CEST) Temp. Heat Index Dew Point Humidity Pressure Visibility Wind Dir Wind Speed Gust Speed Precip Events Conditions
2:00 AM 64 °F - 56 °F 70% 30.06 in - NE 2.3 mph - -  
5:00 AM 62.6 °F - 57.2 °F 82% 30.04 in - Calm Calm - N/A   Clear
5:30 AM 60.8 °F - 57.2 °F 88% 30.04 in - Calm Calm - N/A   Clear
6:00 AM 59.0 °F - 57.2 °F 94% 30.04 in - Calm Calm - N/A   Clear
6:30 AM 59.0 °F - 55.4 °F 88% 30.06 in - Calm Calm - N/A   Clear
7:00 AM 60.8 °F - 55.4 °F 82% 30.06 in - Calm Calm - N/A   Clear
7:30 AM 60.8 °F - 55.4 °F 82% 30.06 in - Calm Calm - N/A   Clear
8:00 AM 63 °F - 58 °F 77% 30.10 in 19 mi NE 2.3 mph - -  
8:00 AM 60.8 °F - 57.2 °F 88% 30.09 in - Variable 2.3 mph - N/A   Clear
8:30 AM 66.2 °F - 59.0 °F 78% 30.09 in - Calm Calm - N/A   Clear
9:00 AM 69.8 °F - 60.8 °F 73% 30.09 in - Calm Calm - N/A   Clear
9:30 AM 73.4 °F - 59.0 °F 61% 30.09 in - Variable 1.2 mph - N/A   Clear
10:00 AM 77.0 °F - 55.4 °F 47% 30.09 in - SSE 5.8 mph - N/A   Clear
10:30 AM 80.6 °F 80.5 °F 55.4 °F 42% 30.09 in - Variable 2.3 mph - N/A   Clear
11:00 AM 80.6 °F 80.5 °F 55.4 °F 42% 30.09 in - Variable 1.2 mph - N/A   Clear
11:30 AM 80.6 °F 80.5 °F 55.4 °F 42% 30.09 in - Variable 1.2 mph - N/A   Clear
12:00 PM 84.2 °F 83.0 °F 55.4 °F 37% 30.09 in - Variable 1.2 mph - N/A   Clear
12:30 PM 84.2 °F - 51.8 °F 33% 30.09 in - Variable 1.2 mph - N/A   Clear
1:00 PM 86.0 °F - 51.8 °F 31% 30.09 in - Variable 1.2 mph - N/A   Clear
1:30 PM 87.8 °F - 50.0 °F 27% 30.09 in - Variable 3.5 mph - N/A   Clear
2:00 PM 91 °F - 52 °F 17% 30.09 in 16 mi NNE 2.3 mph - -  
2:00 PM 87.8 °F - 51.8 °F 29% 30.09 in - NE 4.6 mph - N/A   Clear
2:30 PM 91.4 °F 89.1 °F 53.6 °F 28% 30.09 in - Variable 1.2 mph - N/A   Clear
3:00 PM 91.4 °F - 51.8 °F 26% 30.06 in - ESE 4.6 mph - N/A   Clear
3:30 PM 91.4 °F - 50.0 °F 24% 30.06 in - South 8.1 mph - N/A   Clear
4:00 PM 91.4 °F - 50.0 °F 24% 30.06 in - South 8.1 mph - N/A   Clear
4:30 PM 91.4 °F - 50.0 °F 24% 30.06 in - South 5.8 mph - N/A   Clear
5:00 PM 91.4 °F - 48.2 °F 23% 30.06 in - Variable 5.8 mph - N/A   Clear
5:30 PM 91.4 °F - 48.2 °F 23% 30.04 in - SSW 9.2 mph - N/A   Clear
6:00 PM 89.6 °F - 51.8 °F 27% 30.04 in - West 11.5 mph - N/A   Clear
6:30 PM 91.4 °F - 48.2 °F 23% 30.04 in - SW 10.4 mph - N/A   Clear
7:00 PM 89.6 °F - 48.2 °F 24% 30.04 in - South 8.1 mph - N/A   Clear
7:30 PM 89.6 °F - 50.0 °F 26% 30.04 in - South 8.1 mph - N/A   Clear
8:00 PM 88 °F - 48 °F 16% 30.04 in 19 mi South 9.2 mph - -  
8:00 PM 86.0 °F - 48.2 °F 27% 30.04 in - South 8.1 mph - N/A   Clear
8:30 PM 84.2 °F - 48.2 °F 29% 30.04 in - South 9.2 mph - N/A   Clear
9:00 PM 82.4 °F - 48.2 °F 30% 30.04 in - South 8.1 mph - N/A   Clear
9:30 PM 80.6 °F - 48.2 °F 32% 30.04 in - South 6.9 mph - N/A   Clear
10:00 PM 77.0 °F - 46.4 °F 34% 30.06 in - South 6.9 mph - N/A   Clear
10:30 PM 75.2 °F - 46.4 °F 36% 30.06 in - SSE 4.6 mph - N/A   Clear
11:00 PM 73.4 °F - 46.4 °F 38% 30.06 in - Variable 2.3 mph - N/A   Clear